{"data":{"norad_id":52364,"epoch":"2026-09-20T03:39:06.399360Z","epoch_age_seconds":89576,"freshness":"FRESH","line1":"1 52364U 22045AK  26263.15215740  .00000633  00000+0  30577-4 0  9994","line2":"2 52364  53.1613  27.3411 0001412  69.5929 290.5225 15.33551607245391","mean_motion":15.33551607,"eccentricity":0.0001412,"inclination_deg":53.1613,"raan_deg":27.3411,"arg_perigee_deg":69.5929,"mean_anomaly_deg":290.5225,"bstar":3.0577e-5,"rev_number":24539,"period_min":93.899676634749,"perigee_km":464.25972256909,"apogee_km":466.19228828182,"semimajor_km":6843.3630054255,"source":"CELESTRAK","updated_at":"2026-09-20T09:00:40.027275Z"}}